Other Public Products
Issued by NWS Grand Forks, ND

Home | Current Version | Previous Version | Text Only | Print | Product List | Glossary On
Versions: 1 2 3 4 5 6 7 8 9 10 11 12 13 14 15 16 17 18 19 20 21 22 23 24 25 26 27 28 29 30 31 32 33 34 35 36 37 38 39 40 41 42 43 44 45 46 47 48 49 50
000
FPUS83 KFGF 311431
OPUFGF
PRAIRIE TO PINES WEATHER ROUNDUP
NATIONAL WEATHER SERVICE EASTERN NORTH DAKOTA/GRAND FORKS ND
900 AM CDT THU JUL 31 2014

 **SATELLITE DATA USED TO AUGMENT SKY COVER AT AUTOMATED STATIONS**
 *****  WEATHER ACROSS EASTERN NORTH DAKOTA  *****

CITY           SKY/WX    TMP DP  RH WIND       PRES   REMARKS
GRAND FORKS    SUNNY     68  61  77 NW7       30.02F
GRAND FORKS AF SUNNY     69  64  83 NW7       30.04S
GRAND CITY NWS   N/A     68 N/A N/A N5          N/A
BUXTON           N/A     71  65  81 NW5         N/A
DEVILS LAKE    SUNNY     68  57  68 N3        30.06S
FARGO          SUNNY     66  58  75 CALM      30.04F
WAHPETON ARPT  SUNNY     64  55  72 W3        30.06S
$$

 *****  WEATHER ACROSS CENTRAL AND WESTERN NORTH DAKOTA  *****

CITY           SKY/WX    TMP DP  RH WIND       PRES   REMARKS
JAMESTOWN      MOSUNNY   68  59  73 NW3       30.08S
BISMARCK       MOSUNNY   66  58  75 CALM      30.11S
MINOT          SUNNY     68  57  68 CALM      30.08F
MINOT AFB      SUNNY     67  60  77 W2        30.08S
GARRISON         N/A     68  61  78 CALM      30.09F
WILLISTON      PTSUNNY   66  60  81 W9        30.08R
DICKINSON      PTSUNNY   62  57  83 E3        30.10F
HETTINGER      PTSUNNY   64  58  80 CALM      30.15F
$$

 *****  OTHER OBSERVATIONS NORTHEAST NORTH DAKOTA  *****

CITY           SKY/WX    TMP DP  RH WIND       PRES   REMARKS
WALHALLA         N/A     68  66  94 NW3         N/A
LANGDON        FAIR      66  59  77 NW5       30.07R
CAVALIER       FAIR      68  61  77 NW6       30.03S
GRAFTON        FAIR      68  61  77 NW6       30.03S
CANDO          FAIR      68  61  77 N5        30.08S
FORT TOTTEN    NOT AVBL
ROLLA          FAIR      70  61  73 NW7       30.09F
RUGBY          FAIR      64  63  94 CALM      30.08S
 ***** THE ABOVE OBSERVATIONS ARE NON NWS ARE NOT QUALITY
        CONTROLLED AND MAY MIS-REPORT RAIN FOR SNOW...
$$

 *****  OTHER OBSERVATIONS SOUTHEAST NORTH DAKOTA *****

CITY           SKY/WX    TMP DP  RH WIND       PRES   REMARKS
COOPERSTOWN    NOT AVBL
VALLEY CITY    FAIR      68  63  83 NW7       30.08R
OAKES          NOT AVBL
GWINNER        MOSUNNY   70  57  64 NW5       30.08S
SHEYENNE NWR     N/A     68  58  70 NW3       29.95S
BUFFALO          N/A     68  57  68 NW5         N/A
WYNDMERE       NOT AVBL
 ***** THE ABOVE OBSERVATIONS ARE NON NWS ARE NOT QUALITY
       CONTROLLED AND MAY MIS-REPORT RAIN FOR SNOW...
$$

  *****  WEATHER ACROSS NORTHERN MINNESOTA  *****

CITY           SKY/WX    TMP DP  RH WIND       PRES   REMARKS
FLAG ISLAND    SUNNY     68  57  68 NW5       30.01R
WARROAD        SUNNY     66  63  88 CALM      30.02F
ROSEAU         SUNNY     66  61  82 CALM      30.02F
HALLOCK        SUNNY     66  61  82 N3        30.02S
THF RVR FALLS  SUNNY     66  61  82 NW5       30.03S
HALSTAD          N/A     71  59  66 N2          N/A
FOSSTON        SUNNY     64  61  88 CALM      30.04S
BAUDETTE       SUNNY     67  62  84 CALM      30.02S
WASKISH        SUNNY     66  63  88 CALM      30.02S
CROOKSTON      SUNNY     66  61  82 NW3       30.03F
$$
  *****  WEATHER ACROSS CENTRAL AND WEST MINNESOTA  *****

CITY           SKY/WX    TMP DP  RH WIND       PRES   REMARKS
BEMIDJI        SUNNY     69  57  66 W8        30.03F
PARK RAPIDS    SUNNY     68  57  68 NW7       30.05S
WADENA         SUNNY     68  61  77 NW5       30.05S
DETROIT LAKES  SUNNY     70  59  68 NW3       30.06F
MOORHEAD       SUNNY     66  63  88 CALM      30.05F
FERGUS FALLS   MOSUNNY   66  55  68 CALM      30.05F
ELBOW LAKE     FAIR      62  59  89 CALM      30.06S
MORRIS MN      SUNNY     70  61  73 NW3       30.06S
STAPLES        MOSUNNY   68  57  68 W5        30.05S
WHEATON        MOSUNNY   68  57  68 W5        30.08S
$$
  *****  WEATHER ELSEWHERE ACROSS MINNESOTA  *****

CITY           SKY/WX    TMP DP  RH WIND       PRES   REMARKS
DULUTH         SUNNY     68  59  73 VRB3      30.00S
INTRNTL FALLS  SUNNY     65  59  81 NW3       30.00S
ELY            SUNNY     63  61  94 CALM      29.99S
CLOQUET        SUNNY     66  57  72 NW5       30.00S
BRAINERD       SUNNY     67  56  67 NW9       30.04S
HIBBING        SUNNY     68  60  75 CALM      30.01S
ALEXANDRIA     MOSUNNY   66  59  78 NW3       30.08R
SAINT CLOUD    MOSUNNY   69  57  65 NW3       30.04S
MINNEAPOLIS    MOSUNNY   70  57  63 W3        30.05S
$$

  *****  WEATHER ACROSS SOUTH DAKOTA  *****

CITY           SKY/WX    TMP DP  RH WIND       PRES   REMARKS
SIOUX FALLS    PTSUNNY   68  58  70 E5        30.09S
BROOKINGS      NOT AVBL
WATERTOWN      SUNNY     65  57  75 CALM      30.09S
HURON          CLOUDY    66  57  72 CALM      30.08R
SISSETON         N/A     71  63  75 CALM      30.06S
ABERDEEN       MOSUNNY   70  56  61 W5        30.09R
MITCHELL       CLOUDY    69  62  78 VRB3      30.08R
PIERRE         SUNNY     69  57  65 NE8       30.09R
MOBRIDGE       SUNNY     67  59  75 SE8       30.08F
RAPID CITY     SUNNY     69  51  52 NW6       30.17S
$$

  *****  SOME WEATHER IN NEARBY STATES *****

CITY           SKY/WX    TMP DP  RH WIND       PRES   REMARKS
GLASGOW MT     SUNNY     73  51  46 SE18      30.05F
GREAT FALLS MT SUNNY     64  45  49 W6        30.14S
CHEYENNE WY    SUNNY     59  46  62 W9        30.33R
SCOTTSBLUFF NE SUNNY     64  57  78 W3        30.22S
OMAHA NE       MOSUNNY   68  58  70 SE3       30.11S
DES MOINES IA  MOSUNNY   68  60  75 CALM      30.10S
DAVENPORT IA   SUNNY     67  62  84 W6        30.09R
CHICAGO IL     MOSUNNY   71  54  54 W9        30.03S
EAU CLAIRE WI  SUNNY     66  61  84 SW7       30.02R
LA CROSSE WI   SUNNY     68  60  75 S5        30.03S
$$

  *****  SOME NATIONAL WEATHER *****

CITY           SKY/WX    TMP DP  RH WIND       PRES   REMARKS
LA GUARDIA NY  CLOUDY    75  56  51 VRB7      30.10S
RALEIGH NC     CLOUDY    75  67  76 S5        30.14R
ATLANTA GA     CLOUDY    73  66  78 E7        30.07S
NEW ORLEANS LA PTSUNNY   85  69  58 NE9       30.04R
OKLAHOMA CITY  DRIZZLE   68  65  90 N10       30.08S FOG
ALBUQUERQUE NM PTSUNNY   67  58  72 NE12      30.30R
SALT LAKE CITY MOSUNNY   68  55  63 NE6       30.18R
LOS ANGELES CA MOSUNNY   68  63  84 CALM      29.93R
BOISE ID       SUNNY     71  49  45 S3        30.12S
SEATTLE WA     MOSUNNY   66  47  50 NE7       30.12S
$$

*** WEATHER ACROSS MANITOBA...SASKATCHEWAN AND ONTARIO ***
                ***ONTARIO***

CITY           SKY/WX    TMP DP  RH WIND       PRES   REMARKS
GERALDTON      CLOUDY    55  52  88 N9        29.85F
THUNDER BAY    SUNNY     63  55  77 W6        29.93F
SIOUX LOOKOUT  MOSUNNY   61  54  77 N5        30.00S
TORONTO        PTSUNNY   64  50  59 SE5       30.00S
BIG TROUT LK   SUNNY     57  46  67 N7        29.98F
PICKLE LAKE    PTSUNNY   57  48  72 N7        29.97S
DRYDEN         SUNNY     63  54  72 N5        30.01S
KENORA         CLOUDY    64  54  68 N5        30.03S
$$
                *** MANITOBA***

CITY           SKY/WX    TMP DP  RH WIND       PRES   REMARKS
BRANDON        MOSUNNY   66  61  82 W5        30.08R
DAUPHIN        SUNNY     64  59  82 W8        30.07S
ISLAND LAKE    MOSUNNY   63  50  63 NE5       30.10
PILOT MOUND      N/A     64  59  82 NW5         N/A
THE PAS        MOSUNNY   72  63  73 NW7       30.02F
THOMPSON       MOSUNNY   64  55  72 SE7       30.07F
WINNIPEG       SUNNY     66  63  88 CALM      30.03S
LYNN LAKE      SUNNY     70  59  68 SE6       30.04S
CHURCHILL      MOSUNNY   61  46  59 SW3       30.11F
GILLAM         CLOUDY    57  50  77 CALM      30.12S
$$
                ***SASKATCHEWAN***

CITY           SKY/WX    TMP DP  RH WIND       PRES   REMARKS
ESTEVAN        MOSUNNY   66  59  77 SE3       30.09S
KINDERSLEY     MOSUNNY   64  61  88 NE7       30.02F
LLOYDMINSTER   PTSUNNY   64  63  94 E7        30.08
PRINCE ALBERT  PTSUNNY   66  64  94 NE2       30.07F
REGINA         MOSUNNY   66  59  77 SE9       30.07S



USA.gov is the U.S. government's official web portal to all federal, state and local government web resources and services.